Regional Weather Roundup
Issued by NWS New Orleans/Baton Rouge, LA

Home | Current Version | Previous Version | Text Only | Print | Product List | Glossary On
Versions: 1 2 3 4 5 6 7 8 9 10 11 12 13 14 15 16 17 18 19 20 21 22 23 24 25 26 27 28 29 30 31 32 33 34 35 36 37 38 39 40 41 42 43 44 45 46 47 48 49 50
058
ASUS44 KLIX 240310
RWRLIX
NEW ORLEANS REGIONAL WEATHER ROUNDUP
NATIONAL WEATHER SERVICE NEW ORLEANS LA
1000 PM CDT WED JUL 23 2014

NOTE: "FAIR" INDICATES FEW OR NO CLOUDS BELOW 12,000 FEET WITH NO
      SIGNIFICANT WEATHER AND/OR OBSTRUCTIONS TO VISIBILITY.
      SKY/WX - SKY CONDITION AND SIGNIFICANT WEATHER.
      TMP - AIR TEMPERATURE.     DP    - DEWPOINT TEMPERATURE.
      RH  - RELATIVE HUMIDITY.   PRES  - PRESSURE.
      HI  - HEAT INDEX.          WCI   - WIND CHILL INDEX.

*  THESE STATIONS ARE NOT NWS OR FAA STATIONS AND ARE NOT UNDER
   NWS QUALITY CONTROL.

LAZ038-040-048-061>063-065>067-069-240400-
SOUTHEAST LOUISIANA

CITY           SKY/WX    TMP DP  RH WIND       PRES   REMARKS
N.O. AUDUBON     N/A     79  72  81 MISG        N/A
N.O. INTL ARPT MOCLDY    78  72  81 S5        30.01F
N.O. LAKEFRONT PTCLDY    79  72  79 SE6       30.02S
N.O. DOWNTOWN*   N/A     81  70  69 S3        30.02S
SLIDELL        CLEAR     74  72  93 SE3       30.01F
BATON ROUGE    PTCLDY    78  74  87 CALM      30.01R
BOOTHVILLE       N/A     80  74  81 S6        30.02R
BELLE CHASSE   MOCLDY    76  72  87 CALM      30.02R
BOGALUSA*        N/A     78  73  85 CALM      30.03S
GALLIANO*      NOT AVBL
NEW ROADS*       N/A     78  75  91 CALM      30.00S
GONZALES*        N/A     75  75 100 CALM      30.01R
HAMMOND*       CLEAR     77  72  83 CALM      30.03S
HOUMA*         CLOUDY    77  71  81 E3        30.02S
PORT FOURCHON* CLEAR     81  73  78 CALM      30.04R

$$

MSZ070-080>082-240400-
SOUTHERN MISSISSIPPI

CITY           SKY/WX    TMP DP  RH WIND       PRES   REMARKS
MCCOMB         PTCLDY    78  72  81 CALM      30.02S
GULFPORT       CLEAR     79  72  79 CALM      30.02R
BILOXI         PTCLDY    78  72  82 CALM      30.02S
PASCAGOULA     CLEAR     73  72  96 CALM      30.03R

$$

COASTAL OBSERVATIONS
LAKE AND NEARSHORE STATIONS

STATION/POSITION TIME  TEMP    WIND        PRES    WAVE
                       AIR SEA DIR/SP/G            HT/PER
                 (UTC) (F)     (DEG/KT/KT) (MB)    (FT/S)
WAVELAND YACHT   0300   79     250/  2/  3 1016.0
GRAND ISLE       0300   80 85  240/  2/  4 1017.1
SOUTHWEST PASS   0300   82 85  210/  5/  7 1017.2
NEW CANAL        0300   81 82  150/  2/  3 1016.9
SHELL BEACH      0300   80 81  130/  3/  4 1016.5

OFFSHORE STATIONS

STATION/POSITION TIME  TEMP    WIND        PRES    WAVE
                       AIR SEA DIR/SP/G            HT/PER
                 (UTC) (F)     (DEG/KT/KT) (MB)    (FT/S)
64 S DAUPHIN ISL 0237   83 85  210/ 10/ 10 1017.0

$$




USA.gov is the U.S. government's official web portal to all federal, state and local government web resources and services.